Location: 22
(39.7117°N, 89.5929°W)
Time: 04:03:28
(UTC-06:00)

Envisat - Pass Details

Date: 02 October 2023
Orbit: 762 x 764 km, 98.3° (Epoch: 07 December)

Event Time Altitude Azimuth Distance (km) Brightness Sun altitude
Rises 03:27:29 0° 30° (NNE) 3,237 7.0 -38.9°
Reaches altitude 10° 03:30:32 10° 50° (NE) 2,306 6.2 -38.4°
Maximum altitude 03:33:57 18° 92° (E) 1,810 5.3 -37.9°
Enters shadow 03:34:15 18° 97° (E) 1,814 5.3 -37.8°
